STARLINK-11742, 64377

Orbit data source: Space-Track

STARLINK-11742, 64377 is a payload satellite owned by SpaceX/Seattle (US) in LEO that was launched on Fri, 13 Jun 2025 UTC via an FALCON 9 launch vehicle from the Air Force Eastern Test Range (AFETR). Payload-class satellites include a variety of spacecraft equipped with specific instruments for various scientific and technological missions. These include communications satellites like Starlink; space stations such as the ISS; scientific satellites like the Hubble; Earth observation satellites from companies like Planet Labs, Umbra, and HawkEye 360; GPS; miniature CubeSats for education and research; and military/defense satellites.

Loading next visibility...
Identifier
64377, 2025-127H
Orbit
LEO
Country
Flag of USUS
Related business
Manufacturer
SpaceX/Seattle
Mission
Operational Commercial Communications
Bus & Motor
STARLINK V2MD, Unknown motor
Mass
960 kg wet, ~910 kg dry
Launch date (UTC)
2025-06-13 (10 months ago)
Launch vehicle
FALCON 9
Launch site
Air Force Eastern Test Range (AFETR)
Object type
Payload
Rocket body
Debris
Shape & HBR
Box + 2 Pan, 18.1 m
Radar Cross Section
36.964 m², Large (>1 m²)

Expand to show TLE details & history
Last TLE update: 5 hours ago

TLE from 5 hours ago
0 STARLINK-11742
1 64377U 25127H   26095.54489128  .00210257  00000-0  15958-2 0  9994
2 64377  42.9977 282.8722 0001706 288.4622  71.6060 15.70916657 47721
Epoch: 2026-04-05T13:04Z
TLE epoch observation values (Epoch: 2026-04-05T13:04:38.606Z)
Latitude
-0.00003°
Longitude
-107.13747°
Altitude
355.685 km
Speed
7.698 km/s
True Right ascension
18h 51m 29s
True Declination
0° 00' 00"
Sunlit
Object was in daylight at epoch
Visualization orbit readout
Latitude
Unknown
Longitude
Unknown
Altitude
Unknown
Speed
Unknown
Apparent Right ascension
Unknown
Apparent Declination
Unknown
Sunlit
N/A
Visualization observer readout
Local Sidereal Time
00:21:55
Azimuth
Unknown
Elevation
Unknown
Doppler factor
Unknown
Orbital elements
Apogee altitude
359.407 km
Perigee altitude
357.109 km
Semi-major axis
6,736.395 km
Eccentricity
0.00017
Inclination
42.9977°
RAAN
282.8722°
Arg. of periapsis
288.4622°
True anomaly
71.62455°
Mean anomaly
71.606°
Eccentric anomaly
71.61528°
Mean motion
3.92556 °/min
Orbital period
91.71 mins
BSTAR
0.0015958
Loading maneuver chart data...
Computing Atmospheric mass density...
Loading historical data...
Loading historical data...
Loading historical data...
Loading historical data...
Loading historical data...
Loading historical data...
Loading historical data...

Documentation

Showing up to 5 results
|